This is the latest recevied weather packets stored in our database for station/object KF6GPE. If no packets are shown the sender has not sent any weather packets the latest 10 day(s).
| Time | Temp. | Humidity | Pressure | Rain* | Wind** | Luminosity | Snow |
|---|---|---|---|---|---|---|---|
| 1778104803 | 23.33° C | 61% | 991.1 hPa | 0 mm | - | 1081 W/m² | - |
| 1778104204 | 23.33° C | 62% | 991.1 hPa | 0 mm | - | 1083 W/m² | - |
| 1778103603 | 23.89° C | 61% | 991.3 hPa | 0 mm | - | 1085 W/m² | - |
| 1778103003 | 23.33° C | 61% | 991.3 hPa | 0 mm | - | 1041 W/m² | - |
| 1778102403 | 23.33° C | 60% | 991.4 hPa | 0 mm | - | 1092 W/m² | - |
| 1778101803 | 23.33° C | 62% | 991.5 hPa | 0 mm | - | 1092 W/m² | - |
| 1778101205 | 23.89° C | 60% | 991.5 hPa | 0 mm | - | 1070 W/m² | - |
| 1778100603 | 23.89° C | 61% | 991.6 hPa | 0 mm | - | 1093 W/m² | - |
| 1778100003 | 23.89° C | 61% | 991.6 hPa | 0 mm | - | 1094 W/m² | - |
| 1778099403 | 23.33° C | 64% | 991.7 hPa | 0 mm | - | 1094 W/m² | - |
| 1778098802 | 23.33° C | 62% | 991.8 hPa | 0 mm | - | 1096 W/m² | - |
| 1778098204 | 23.33° C | 58% | 991.9 hPa | 0 mm | - | 1072 W/m² | - |
| 1778097603 | 23.33° C | 56% | 991.9 hPa | 0 mm | - | 1084 W/m² | - |
| 1778097004 | 23.33° C | 59% | 992.1 hPa | 0 mm | - | 1099 W/m² | - |
| 1778096404 | 22.22° C | 62% | 992.1 hPa | 0 mm | - | 1096 W/m² | - |
| 1778095804 | 21.67° C | 61% | 992.1 hPa | 0 mm | - | 1095 W/m² | - |
| 1778095203 | 21.67° C | 62% | 992.2 hPa | 0 mm | - | 1029 W/m² | - |
| 1778094604 | 21.11° C | 62% | 992.4 hPa | 0 mm | - | 1092 W/m² | - |
| 1778094004 | 21.67° C | 61% | 992.4 hPa | 0 mm | - | 1087 W/m² | - |
| 1778093404 | 20.56° C | 64% | 992.4 hPa | 0 mm | - | 1029 W/m² | - |
| 1778092804 | 20.56° C | 64% | 992.5 hPa | 0 mm | - | 1028 W/m² | - |
| 1778092204 | 20.56° C | 65% | 992.6 hPa | 0 mm | - | 1091 W/m² | - |
| 1778091603 | 20° C | 67% | 992.7 hPa | 0 mm | - | 1071 W/m² | - |
| 1778091004 | 20° C | 67% | 992.7 hPa | 0 mm | - | 1052 W/m² | - |
| 1778090405 | 19.44° C | 69% | 992.8 hPa | 0 mm | - | 1080 W/m² | - |
* Rain latest hour (hover to see other rain measurements)
** Current wind speed in m/s (hover to see current wind gust speed)